FW0428 Weather Reports


Display with metric or nautical units.
time (UTC)temp
F
wind
direction
speed
MPH
gust
MPH
rain 1hr
in
rain 24hr
in
rain mn
in
humidity
%
barometer
mb
20260507211622 69 257 0.0 2.0 0.00 0.00 0.00 64 1014.7
20260507210139 69 261 1.0 3.0 0.00 0.00 0.00 65 1014.5
20260507194559 69 257 1.0 3.0 0.00 0.00 0.00 63 1015.5
20260507190155 68 245 0.0 2.0 0.00 0.00 0.00 63 1016.4
20260507183138 68 143 0.0 3.0 0.00 0.00 0.00 66 1016.7
20260507181627 68 284 0.0 2.0 0.00 0.00 0.00 67 1016.7
20260507180128 66 190 1.0 4.0 0.00 0.00 0.00 65 1016.7
20260507174647 66 240 2.0 4.0 0.00 0.00 0.00 66 1017.1
20260507173104 63 234 0.0 4.0 0.00 0.00 0.00 71 1017.1
20260507164657 62 251 2.0 5.0 0.00 0.00 0.00 70 1017.7
20260507163138 61 269 2.0 5.0 0.00 0.00 0.00 71 1017.8
20260507161601 60 245 2.0 5.0 0.00 0.00 0.00 71 1017.9
20260507140105 56 140 1.0 3.0 0.00 0.00 0.00 83 1018.6
20260507134533 55 229 0.0 5.0 0.00 0.00 0.00 84 1018.4
20260507133106 54 131 0.0 4.0 0.00 0.00 0.00 87 1018.5
20260507131533 53 279 0.0 2.0 0.00 0.00 0.00 88 1018.5
20260507130146 53 186 0.0 2.0 0.00 0.00 0.00 89 1018.5
20260507121512 51 136 0.0 1.0 0.00 0.00 0.00 90 1018.1
20260507120035 51 138 0.0 1.0 0.00 0.00 0.00 89 1017.9
20260507113052 51 136 0.0 1.0 0.00 0.00 0.00 88 1017.5
20260507111608 52 224 0.0 1.0 0.00 0.00 0.00 87 1017.1
20260507104545 52 214 0.0 1.0 0.00 0.00 0.00 85 1016.0
20260507103022 53 223 0.0 2.0 0.00 0.00 0.00 84 1015.7
20260507101604 53 233 0.0 2.0 0.00 0.00 0.00 84 1015.6
20260507100010 53 232 1.0 3.0 0.00 0.00 0.00 84 1015.4
20260507080026 53 269 1.0 4.0 0.00 0.00 0.00 86 1014.5
20260507074644 53 242 1.0 4.0 0.00 0.00 0.00 86 1014.8
20260507073050 53 242 1.0 3.0 0.00 0.00 0.00 86 1014.9
20260507070036 53 260 2.0 3.0 0.00 0.00 0.00 86 1015.3
20260507064528 53 292 1.0 4.0 0.00 0.00 0.00 86 1015.6
20260507063001 53 233 1.0 4.0 0.00 0.00 0.00 86 1015.5
20260507061556 54 253 2.0 4.0 0.00 0.00 0.00 86 1015.6
20260507060023 54 238 1.0 8.0 0.00 0.00 0.00 86 1015.6
20260507054542 54 246 3.0 5.0 0.00 0.00 0.00 85 1015.5
20260507053101 54 259 1.0 5.0 0.00 0.00 0.00 85 1015.4
20260507051512 54 267 1.0 3.0 0.00 0.00 0.00 86 1015.7
20260507050156 54 157 3.0 6.0 0.00 0.00 0.00 85 1015.6
20260507031700 56 253 2.0 5.0 0.00 0.00 0.00 88 1014.7
20260507014634 58 203 1.0 4.0 0.00 0.00 0.00 92 1012.7
20260507013031 58 219 1.0 3.0 0.00 0.00 0.00 92 1012.1
20260507003111 60 223 0.0 2.0 0.00 0.00 0.00 92 1011.5
20260506234556 60 231 1.0 4.0 0.00 0.00 0.00 90 1011.4